Change the Weather History Date:

Monday, December 31, 2012

  Actual Average Record
Temperature  
Mean Temperature 12 °F -  
Max Temperature 25 °F 23 °F 45 °F (2010)
Min Temperature -2 °F 12 °F -8 °F (2008)
Degree Days  
Heating Degree Days 52    
Moisture  
Dew Point 9 °F    
Average Humidity 77    
Maximum Humidity 86    
Minimum Humidity 63    
Precipitation  
Precipitation 0.00 in - - ()
Snow  
Snow 0.00 in - - ()
Snow Depth 11.00 in    
Sea Level Pressure  
Sea Level Pressure 30.10 in    
Wind  
Wind Speed 10 mph (WNW)    
Max Wind Speed 18 mph    
Max Gust Speed 22 mph    
Visibility 10 miles    
Events Snow    
Averages and records for this station are not official NWS values.
T = Trace of Precipitation, MM = Missing Value Source: NWS Daily Summary

Daily Weather History Graph

Daily Weather History Graph

Search for Another Location

Airport or City:

Trip Planner

Search our weather history database for the weather conditions in past years. The results will help you decide how hot, cold, wet, or windy it might be!

Date:

Astronomy

Dec. 31, 2012 Rise Set
Actual Time 7:35 AM CST 4:33 PM CST
Civil Twilight 7:02 AM CST 5:06 PM CST
Nautical Twilight 6:26 AM CST 5:42 PM CST
Astronomical Twilight 5:51 AM CST 6:17 PM CST
Moon 8:11 PM CST (12/31) 9:10 AM CST (12/31)
Length of Visible Light 10h 03m
Length of Day
8h 57m
Waning Gibbous, 90% of the Moon is Illuminated
Dec 31
Waning Gibbous
Jan 4
Last Quarter
Jan 11
New
Jan 18
First Quarter
Jan 26
Full

Hourly Weather History & Observations

Time (CST) Temp. Windchill Dew Point Humidity Pressure Visibility Wind Dir Wind Speed Gust Speed Precip Events Conditions
12:55 AM 25.5 °F 16.9 °F 19.8 °F 79% 29.95 in 10.0 mi WSW 8.1 mph - N/A   Clear
1:55 AM 23.2 °F 13.3 °F 18.3 °F 82% 29.95 in 10.0 mi West 9.2 mph - N/A   Clear
2:55 AM 24.4 °F 13.0 °F 19.2 °F 81% 29.96 in 10.0 mi West 12.7 mph - N/A   Partly Cloudy
3:55 AM 22.6 °F 10.7 °F 18.0 °F 82% 29.99 in 10.0 mi West 12.7 mph - N/A   Clear
4:55 AM 20.5 °F 8.6 °F 16.2 °F 83% 30.00 in 10.0 mi West 11.5 mph - N/A   Clear
5:13 AM 21.2 °F 9.5 °F 15.8 °F 80% 30.01 in 10.0 mi WNW 11.5 mph - N/A   Mostly Cloudy
5:55 AM 20.1 °F 6.4 °F 15.4 °F 82% 30.04 in 10.0 mi NW 15.0 mph 21.9 mph N/A   Overcast
6:55 AM 19.4 °F 7.9 °F 15.8 °F 86% 30.06 in 10.0 mi WNW 10.4 mph - N/A   Overcast
7:55 AM 19.4 °F 4.1 °F 14.0 °F 80% 30.06 in 10.0 mi WNW 18.4 mph - N/A   Overcast
8:55 AM 17.6 °F 4.3 °F 12.2 °F 79% 30.09 in 10.0 mi WNW 12.7 mph - N/A Snow Light Snow
9:55 AM 17.6 °F 5.0 °F 10.4 °F 73% 30.12 in 7.0 mi WNW 11.5 mph - N/A Snow Light Snow
9:59 AM 17.6 °F 6.4 °F 10.4 °F 73% 30.12 in 10.0 mi WNW 9.2 mph - N/A Snow Light Snow
10:00 AM 17.6 °F 6.4 °F 10.4 °F 73% 30.12 in 10.0 mi WNW 9.2 mph - N/A Snow Light Snow
10:01 AM 17.6 °F 6.4 °F 10.4 °F 73% 30.12 in 10.0 mi WNW 9.2 mph - N/A Snow Light Snow
10:55 AM 17.6 °F 4.3 °F 10.4 °F 73% 30.12 in 7.0 mi WNW 12.7 mph - N/A Snow Light Snow
11:33 AM 15.8 °F 2.7 °F 8.6 °F 73% 30.11 in 10.0 mi NNW 11.5 mph - N/A   Mostly Cloudy
11:55 AM 17.6 °F 5.0 °F 8.6 °F 68% 30.11 in 10.0 mi NNW 11.5 mph - N/A   Mostly Cloudy
12:55 PM 17.6 °F 4.3 °F 6.8 °F 63% 30.09 in 10.0 mi WNW 12.7 mph - N/A   Mostly Cloudy
1:55 PM 19.4 °F 7.2 °F 8.6 °F 63% 30.10 in 10.0 mi West 11.5 mph - N/A   Mostly Cloudy
2:55 PM 19.4 °F 7.9 °F 8.6 °F 63% 30.11 in 10.0 mi WNW 10.4 mph - N/A   Mostly Cloudy
3:55 PM 15.8 °F 5.1 °F 6.8 °F 68% 30.12 in 10.0 mi WNW 8.1 mph - N/A   Mostly Cloudy
4:55 PM 10.4 °F -1.5 °F 3.2 °F 73% 30.15 in 10.0 mi WNW 8.1 mph - N/A   Scattered Clouds
6:55 PM 3.2 °F -10.3 °F -0.4 °F 85% 30.18 in 10.0 mi NW 8.1 mph - N/A   Mostly Cloudy
7:55 PM 3.2 °F -9.1 °F -0.4 °F 85% 30.20 in 10.0 mi WNW 6.9 mph - N/A   Scattered Clouds
8:55 PM 3.2 °F -10.3 °F -0.4 °F 85% 30.20 in 10.0 mi WNW 8.1 mph - N/A   Mostly Cloudy
9:55 PM 1.4 °F -9.9 °F -2.2 °F 85% 30.22 in 10.0 mi WNW 5.8 mph - N/A   Scattered Clouds
10:55 PM -0.4 °F -10.4 °F -4.0 °F 85% 30.25 in 10.0 mi West 4.6 mph - N/A   Scattered Clouds
11:55 PM -2.2 °F -10.4 °F -5.8 °F 85% 30.25 in 10.0 mi WNW 3.5 mph - N/A   Clear